Todos
Laverton Airport (Laverton, Western Australia) LVO Condiciones meteorológicas
|
Laverton, Western Australia (LVO / YLTN)
Cielo despejado
Vientos suaves |
|
18 °C |
There is no TAF data available at LVO or any nearby airports.
Historial METAR LVO reciente
| Date | Time (AWST) | Flight Rules | Wind Dir. | Speed | Type | Height AGL (ft) | Visibility | Temp (°C) | Temp (°F) | Dew Point (°C) | Dew Point (°F) | Rel. Humid. | Pressure | Density Altitude | Remarks |
|---|---|---|---|---|---|---|---|---|---|---|---|---|---|---|---|
| 03-may | 02:00PM | n/a | 160° | 8 kt | Missing | 18° | 64° | 7° | 44° | 49% | 1023 mb | 1.833 ft | |||
| 03-may | 01:00PM | n/a | 190° | 9 kt | Missing | 17° | 62° | 8° | 46° | 55% | 1023 mb | 1.713 ft | |||
| 03-may | 12:00PM | n/a | 180° | 9 kt | Missing | 17° | 62° | 8° | 46° | 55% | 1024 mb | 1.684 ft | |||
| 03-may | 11:00AM | n/a | 170° | 9 kt | Missing | 16° | 60° | 8° | 46° | 59% | 1025 mb | 1.534 ft | |||
| 03-may | 10:00AM | n/a | 160° | 12 kt | Missing | 15° | 59° | 9° | 48° | 67% | 1025 mb | 1.414 ft | |||
| 03-may | 09:00AM | n/a | 150° | 11 kt | Missing | 13° | 55° | 9° | 48° | 77% | 1025 mb | 1.174 ft | |||
| 03-may | 08:00AM | n/a | 150° | 8 kt | Missing | 11° | 51° | 9° | 48° | 87% | 1025 mb | 934 ft | |||
| 03-may | 07:00AM | n/a | 160° | 4 kt | Missing | 8° | 46° | 8° | 46° | 100% | 1024 mb | 604 ft | |||
| 03-may | 06:00AM | n/a | Calm | Missing | 7° | 44° | 7° | 44° | 100% | 1024 mb | 484 ft | ||||
| 03-may | 05:00AM | n/a | 160° | 6 kt | Missing | 8° | 46° | 8° | 46° | 100% | 1023 mb | 633 ft | |||
| 03-may | 04:00AM | n/a | 140° | 4 kt | Missing | 8° | 46° | 8° | 46° | 100% | 1023 mb | 633 ft | |||
| 03-may | 03:00AM | n/a | 110° | 3 kt | Missing | 7° | 44° | 7° | 44° | 100% | 1023 mb | 513 ft | |||
| 03-may | 02:00AM | n/a | 120° | 3 kt | Missing | 8° | 46° | 8° | 46° | 100% | 1023 mb | 633 ft | |||
| 03-may | 01:00AM | n/a | 150° | 4 kt | Missing | 9° | 48° | 7° | 44° | 87% | 1022 mb | 783 ft | |||
| 03-may | 12:00AM | n/a | 80° | 3 kt | Missing | 10° | 50° | 7° | 44° | 82% | 1022 mb | 903 ft | |||
| 02-may | 11:00PM | n/a | 150° | 5 kt | Missing | 10° | 50° | 8° | 46° | 87% | 1023 mb | 873 ft | |||
| 02-may | 10:00PM | n/a | 140° | 5 kt | Missing | 11° | 51° | 9° | 48° | 87% | 1023 mb | 993 ft | |||
| 02-may | 09:00PM | n/a | 150° | 4 kt | Missing | 11° | 51° | 9° | 48° | 87% | 1022 mb | 1.023 ft | |||
| 02-may | 08:00PM | n/a | 170° | 5 kt | Missing | 12° | 53° | 9° | 48° | 82% | 1022 mb | 1.143 ft | |||
| 02-may | 07:00PM | n/a | 190° | 4 kt | Missing | 13° | 55° | 8° | 46° | 72% | 1022 mb | 1.263 ft | |||
| 02-may | 06:00PM | n/a | 180° | 4 kt | Missing | 14° | 57° | 8° | 46° | 67% | 1021 mb | 1.412 ft | |||
| 02-may | 05:00PM | n/a | 200° | 8 kt | Missing | 15° | 59° | 7° | 44° | 59% | 1021 mb | 1.532 ft | |||
| 02-may | 04:00PM | n/a | 190° | 9 kt | Missing | 16° | 60° | 7° | 44° | 55% | 1021 mb | 1.652 ft | |||
| 02-may | 03:00PM | n/a | 180° | 9 kt | Missing | 16° | 60° | 7° | 44° | 55% | 1021 mb | 1.652 ft |
Entrar
| Tu navegador no está contemplado. eleva la categoría de tu navegador |
